FW4655 Weather Reports


Display with metric or nautical units.
time (UTC)temp
F
wind
direction
speed
MPH
gust
MPH
rain 1hr
in
rain 24hr
in
rain mn
in
humidity
%
barometer
mb
20260503031514 65 11 0.0 1.0 0.00 0.00 0.00 69 1013.1
20260503031008 65 11 0.0 1.0 0.00 0.00 0.00 68 1013.0
20260503030508 65 11 0.0 3.0 0.00 0.00 0.00 68 1013.0
20260503030019 65 356 0.0 5.0 0.00 0.00 0.00 68 1013.0
20260503025512 65 315 1.0 6.0 0.00 0.00 0.00 68 1013.1
20260503025011 65 307 2.0 10.0 0.00 0.00 0.00 68 1013.3
20260503024523 65 302 3.0 10.0 0.00 0.00 0.00 68 1013.2
20260503024010 65 305 5.0 9.0 0.00 0.00 0.00 68 1013.4
20260503023511 66 281 3.0 11.0 0.00 0.00 0.00 68 1013.4
20260503023027 66 307 2.0 11.0 0.00 0.00 0.00 67 1013.3
20260503022508 66 281 5.0 11.0 0.00 0.00 0.00 67 1013.3
20260503022013 67 321 3.0 14.0 0.00 0.00 0.00 66 1013.1
20260503021526 67 303 5.0 14.0 0.00 0.00 0.00 66 1013.4
20260503021016 68 319 2.0 14.0 0.00 0.00 0.00 64 1013.2
20260503020517 69 285 6.0 14.0 0.00 0.00 0.00 62 1013.2
20260503020026 71 225 4.0 8.0 0.00 0.00 0.00 60 1012.9
20260503015511 71 270 3.0 7.0 0.00 0.00 0.00 59 1012.5
20260503015010 71 313 2.0 7.0 0.00 0.00 0.00 58 1012.3
20260503014518 72 309 3.0 7.0 0.00 0.00 0.00 57 1012.3
20260503014007 73 299 1.0 3.0 0.00 0.00 0.00 56 1012.2
20260503013508 73 290 1.0 2.0 0.00 0.00 0.00 55 1012.2
20260503013024 73 296 1.0 2.0 0.00 0.00 0.00 55 1012.2
20260503012516 73 291 0.0 2.0 0.00 0.00 0.00 55 1012.2
20260503012015 74 301 1.0 2.0 0.00 0.00 0.00 55 1012.2
20260503011527 74 323 0.0 2.0 0.00 0.00 0.00 54 1012.1
20260503011008 74 13 0.0 3.0 0.00 0.00 0.00 55 1012.1
20260503010510 74 311 1.0 3.0 0.00 0.00 0.00 54 1012.0
20260503010032 74 236 1.0 2.0 0.00 0.00 0.00 54 1012.0
20260503005510 74 198 1.0 2.0 0.00 0.00 0.00 54 1012.0
20260503005013 74 278 0.0 2.0 0.00 0.00 0.00 54 1012.2
20260503004526 74 32 0.0 2.0 0.00 0.00 0.00 54 1012.2
20260503004010 74 39 1.0 3.0 0.00 0.00 0.00 54 1012.2
20260503003511 74 2 2.0 3.0 0.00 0.00 0.00 54 1012.2
20260503003029 73 351 0.0 5.0 0.00 0.00 0.00 54 1012.2
20260503002510 73 27 2.0 6.0 0.00 0.00 0.00 54 1012.2
20260503002011 73 40 2.0 6.0 0.00 0.00 0.00 54 1012.3
20260503001524 73 314 2.0 6.0 0.00 0.00 0.00 54 1012.2
20260503001010 73 77 2.0 6.0 0.00 0.00 0.00 54 1012.3
20260503000509 73 49 2.0 6.0 0.00 0.00 0.00 54 1012.4
20260503000035 73 63 2.0 6.0 0.00 0.00 0.00 54 1012.4
20260502235504 73 360 3.0 7.0 0.00 0.00 0.00 55 1012.4
20260502235005 73 127 3.0 7.0 0.00 0.00 0.00 54 1012.5
20260502234509 72 24 3.0 7.0 0.00 0.00 0.00 55 1012.5
20260502234006 72 92 3.0 7.0 0.00 0.00 0.00 54 1012.6
20260502233504 72 20 3.0 7.0 0.00 0.00 0.00 55 1012.7
20260502233003 72 342 4.0 7.0 0.00 0.00 0.00 55 1012.8
20260502232503 72 49 3.0 6.0 0.00 0.00 0.00 54 1012.8
20260502232003 72 51 2.0 4.0 0.00 0.00 0.00 56 1012.8
20260502231504 71 18 3.0 6.0 0.00 0.00 0.00 56 1012.9
20260502231011 71 49 3.0 6.0 0.00 0.00 0.00 56 1012.9
20260502230504 71 76 1.0 7.0 0.00 0.00 0.00 57 1012.9
20260502230008 70 349 2.0 7.0 0.00 0.00 0.00 57 1013.0
20260502225504 70 310 1.0 6.0 0.00 0.00 0.00 57 1013.1
20260502225007 70 79 3.0 6.0 0.00 0.00 0.00 58 1013.2
20260502224510 70 69 3.0 6.0 0.00 0.00 0.00 57 1013.3
20260502224007 70 349 2.0 6.0 0.00 0.00 0.00 57 1013.3
20260502223504 70 96 3.0 6.0 0.00 0.00 0.00 56 1013.4
20260502223024 71 349 2.0 6.0 0.00 0.00 0.00 56 1013.5
20260502222504 70 72 1.0 6.0 0.00 0.00 0.00 57 1013.6
20260502222007 70 120 3.0 7.0 0.00 0.00 0.00 57 1013.7
20260502221504 70 39 3.0 7.0 0.00 0.00 0.00 57 1013.7
20260502221010 70 63 3.0 5.0 0.00 0.00 0.00 56 1013.8
20260502220504 71 165 1.0 7.0 0.00 0.00 0.00 56 1013.9
20260502220007 70 94 2.0 7.0 0.00 0.00 0.00 57 1014.0
20260502215504 70 68 1.0 7.0 0.00 0.00 0.00 57 1014.0
20260502215008 69 104 1.0 7.0 0.00 0.00 0.00 58 1014.1
20260502214509 69 19 3.0 6.0 0.00 0.00 0.00 58 1014.2
20260502214011 70 19 3.0 6.0 0.00 0.00 0.00 57 1014.3
20260502213507 69 87 2.0 8.0 0.00 0.00 0.00 58 1014.4
20260502213013 68 75 4.0 8.0 0.00 0.00 0.00 59 1014.5
20260502212507 67 151 2.0 7.0 0.00 0.00 0.00 60 1014.6
20260502212008 66 333 3.0 8.0 0.00 0.00 0.00 61 1014.6
20260502211513 66 101 3.0 8.0 0.00 0.00 0.00 61 1014.7
20260502211006 67 53 6.0 8.0 0.00 0.00 0.00 60 1014.8
20260502210513 67 97 1.0 8.0 0.00 0.00 0.00 60 1014.8
20260502210014 66 66 2.0 8.0 0.00 0.00 0.00 61 1014.9
20260502205503 66 44 1.0 6.0 0.00 0.00 0.00 61 1015.0
20260502205005 65 44 2.0 6.0 0.00 0.00 0.00 63 1015.2
20260502204508 64 174 3.0 5.0 0.00 0.00 0.00 62 1015.4
20260502204004 65 307 2.0 4.0 0.00 0.00 0.00 62 1015.5
20260502203505 65 304 1.0 4.0 0.00 0.00 0.00 62 1015.5
20260502203011 64 217 1.0 5.0 0.00 0.00 0.00 65 1015.5
20260502202507 63 323 2.0 5.0 0.00 0.00 0.00 66 1015.6
20260502202004 63 346 3.0 5.0 0.00 0.00 0.00 65 1015.5
20260502201513 63 39 3.0 6.0 0.00 0.00 0.00 65 1015.6
20260502201007 62 322 2.0 6.0 0.00 0.00 0.00 66 1015.7
20260502200507 62 65 2.0 6.0 0.00 0.00 0.00 66 1015.8
20260502200018 62 52 1.0 6.0 0.00 0.00 0.00 67 1015.8
20260502195507 62 86 4.0 7.0 0.00 0.00 0.00 67 1015.8
20260502195007 61 31 1.0 7.0 0.00 0.00 0.00 68 1015.9
20260502194526 61 58 4.0 6.0 0.00 0.00 0.00 67 1015.9
20260502194007 62 13 2.0 7.0 0.00 0.00 0.00 66 1016.0
20260502193506 62 344 4.0 7.0 0.00 0.00 0.00 66 1016.1
20260502193008 62 77 2.0 6.0 0.00 0.00 0.00 67 1016.1
20260502192510 61 61 1.0 7.0 0.00 0.00 0.00 68 1016.1
20260502192007 60 70 1.0 8.0 0.00 0.00 0.00 69 1016.2
20260502191510 61 48 1.0 8.0 0.00 0.00 0.00 68 1016.2
20260502191006 61 12 3.0 8.0 0.00 0.00 0.00 69 1016.2
20260502190507 60 109 1.0 3.0 0.00 0.00 0.00 70 1016.3
20260502190019 59 340 0.0 4.0 0.00 0.00 0.00 72 1016.3
20260502185509 59 272 1.0 6.0 0.00 0.00 0.00 71 1016.4
20260502185010 59 35 2.0 6.0 0.00 0.00 0.00 71 1016.5
20260502184520 58 124 1.0 6.0 0.00 0.00 0.00 72 1016.4
20260502184006 58 107 3.0 6.0 0.00 0.00 0.00 72 1016.2
20260502183507 58 40 2.0 6.0 0.00 0.00 0.00 72 1016.3
20260502183020 57 29 2.0 6.0 0.00 0.00 0.00 73 1016.3
20260502182509 57 93 3.0 5.0 0.00 0.00 0.00 73 1016.4
20260502182009 57 35 2.0 5.0 0.00 0.00 0.00 74 1016.6
20260502181509 57 63 3.0 5.0 0.00 0.00 0.00 74 1016.6
20260502181006 57 75 2.0 5.0 0.00 0.00 0.00 74 1016.7
20260502180504 57 224 2.0 5.0 0.00 0.00 0.00 74 1016.7
20260502170507 54 94 0.0 4.0 0.00 0.00 0.00 79 1017.2
20260502164007 54 41 2.0 5.0 0.00 0.00 0.00 80 1017.0
20260502163507 53 90 2.0 7.0 0.00 0.00 0.00 79 1017.0
20260502163035 53 101 3.0 7.0 0.00 0.00 0.00 80 1016.9
20260502162508 53 103 0.0 7.0 0.00 0.00 0.00 81 1017.0
20260502162016 53 96 3.0 7.0 0.00 0.00 0.00 80 1017.0
20260502161529 53 51 1.0 7.0 0.00 0.00 0.00 80 1017.1
20260502161008 53 78 3.0 7.0 0.00 0.00 0.00 80 1017.1
20260502160506 53 77 2.0 5.0 0.00 0.00 0.00 80 1017.1
20260502152009 52 141 0.0 3.0 0.00 0.00 0.00 81 1017.1
20260502151520 52 25 1.0 3.0 0.00 0.00 0.00 81 1017.1
20260502151008 52 46 1.0 4.0 0.00 0.00 0.00 81 1017.2
20260502150511 52 88 1.0 4.0 0.00 0.00 0.00 80 1017.2
20260502130508 51 49 1.0 3.0 0.00 0.00 0.00 81 1017.0
20260502123508 51 65 1.0 4.0 0.00 0.00 0.00 81 1017.0
20260502123032 51 108 2.0 4.0 0.00 0.00 0.00 82 1017.0
20260502122514 51 107 2.0 4.0 0.00 0.00 0.00 82 1017.0
20260502122011 51 72 1.0 4.0 0.00 0.00 0.00 82 1017.1
20260502121528 51 86 1.0 8.0 0.00 0.00 0.00 82 1017.0
20260502121010 51 76 3.0 8.0 0.00 0.00 0.00 81 1016.9
20260502120516 51 44 1.0 5.0 0.00 0.00 0.00 82 1017.0
20260502115507 51 25 1.0 7.0 0.00 0.00 0.00 82 1017.0
20260502115007 51 58 2.0 8.0 0.00 0.00 0.00 82 1017.0
20260502114519 51 52 2.0 9.0 0.00 0.00 0.00 82 1017.0
20260502114008 51 54 4.0 9.0 0.00 0.00 0.00 81 1016.9
20260502113509 51 53 2.0 4.0 0.00 0.00 0.00 82 1017.0
20260502113029 51 48 2.0 5.0 0.00 0.00 0.00 82 1017.0
20260502112507 51 64 0.0 5.0 0.00 0.00 0.00 82 1017.1
20260502112010 51 18 3.0 8.0 0.00 0.00 0.00 81 1017.1
20260502111524 51 105 2.0 8.0 0.00 0.00 0.00 81 1016.7
20260502111011 51 52 2.0 5.0 0.00 0.00 0.00 81 1016.7
20260502110511 51 76 1.0 8.0 0.00 0.00 0.00 81 1017.0
20260502110028 52 41 3.0 8.0 0.00 0.00 0.00 81 1017.1
20260502105509 52 40 1.0 4.0 0.00 0.00 0.00 82 1017.0
20260502105010 52 95 2.0 4.0 0.00 0.00 0.00 81 1017.0
20260502104534 52 82 1.0 4.0 0.00 0.00 0.00 81 1017.0
20260502104006 52 96 2.0 4.0 0.00 0.00 0.00 81 1017.1
20260502103511 52 91 0.0 4.0 0.00 0.00 0.00 81 1017.2
20260502103022 52 84 0.0 3.0 0.00 0.00 0.00 82 1017.2
20260502102509 52 84 0.0 4.0 0.00 0.00 0.00 82 1017.3
20260502102011 52 86 1.0 4.0 0.00 0.00 0.00 82 1017.1
20260502101526 51 106 1.0 7.0 0.00 0.00 0.00 82 1016.8
20260502101010 52 111 2.0 7.0 0.00 0.00 0.00 82 1016.5
20260502100510 52 156 2.0 6.0 0.00 0.00 0.00 82 1016.6
20260502091524 52 113 0.0 3.0 0.00 0.00 0.00 83 1018.0
20260502091012 52 32 0.0 4.0 0.00 0.00 0.00 83 1018.2
20260502090510 52 83 1.0 4.0 0.00 0.00 0.00 82 1018.2
20260502071518 54 93 2.0 5.0 0.00 0.00 0.00 74 1017.9
20260502071005 54 96 0.0 3.0 0.00 0.00 0.00 74 1017.9
20260502070512 55 96 0.0 3.0 0.00 0.00 0.00 74 1017.7
20260502070022 55 94 0.0 3.0 0.00 0.00 0.00 74 1017.7
20260502065510 55 162 0.0 3.0 0.00 0.00 0.00 74 1017.9
20260502065003 55 83 0.0 4.0 0.00 0.00 0.00 74 1017.8
20260502064504 55 41 0.0 4.0 0.00 0.00 0.00 74 1017.8
20260502064004 55 77 2.0 4.0 0.00 0.00 0.00 74 1017.9
20260502063506 55 103 2.0 4.0 0.00 0.00 0.00 74 1017.8
20260502063008 55 74 2.0 4.0 0.00 0.00 0.00 73 1017.9
20260502062504 55 75 0.0 4.0 0.00 0.00 0.00 73 1017.9
20260502062007 56 96 2.0 6.0 0.00 0.00 0.00 73 1017.8
20260502061512 56 77 1.0 6.0 0.00 0.00 0.00 73 1017.8
20260502061007 56 69 2.0 6.0 0.00 0.00 0.00 72 1017.7
20260502060513 56 56 3.0 6.0 0.00 0.00 0.00 72 1017.8
20260502060018 56 75 2.0 5.0 0.00 0.00 0.00 72 1017.7
20260502055508 57 94 2.0 5.0 0.00 0.00 0.00 72 1017.7
20260502055011 57 94 2.0 5.0 0.00 0.00 0.00 72 1017.6
20260502054523 57 86 1.0 3.0 0.00 0.00 0.00 72 1017.6
20260502054010 57 119 1.0 3.0 0.00 0.00 0.00 72 1017.6
20260502053510 58 73 1.0 5.0 0.00 0.00 0.00 72 1017.5
20260502053005 58 54 2.0 6.0 0.00 0.00 0.00 72 1017.5
20260502052504 58 81 3.0 6.0 0.00 0.00 0.00 71 1017.5
20260502052006 58 101 2.0 4.0 0.00 0.00 0.00 71 1017.4
20260502051514 58 98 0.0 5.0 0.00 0.00 0.00 71 1017.4
20260502051004 58 99 2.0 8.0 0.00 0.00 0.00 71 1017.3
20260502050507 59 114 2.0 8.0 0.00 0.00 0.00 71 1017.2
20260502050013 59 72 2.0 5.0 0.00 0.00 0.00 71 1017.3
20260502045507 59 87 2.0 8.0 0.00 0.00 0.00 71 1017.3
20260502045008 60 42 2.0 8.0 0.00 0.00 0.00 70 1017.3
20260502044519 60 39 3.0 7.0 0.00 0.00 0.00 70 1017.3
20260502044008 60 106 1.0 4.0 0.00 0.00 0.00 70 1017.3
20260502043510 61 105 1.0 5.0 0.00 0.00 0.00 70 1017.3
20260502043029 61 94 1.0 5.0 0.00 0.00 0.00 69 1017.2
20260502042513 62 70 2.0 6.0 0.00 0.00 0.00 69 1017.2
20260502042013 62 80 2.0 8.0 0.00 0.00 0.00 69 1016.9
20260502041525 62 92 3.0 8.0 0.00 0.00 0.00 68 1016.8
20260502041004 63 52 3.0 6.0 0.00 0.00 0.00 68 1016.7
20260502040507 63 99 1.0 7.0 0.00 0.00 0.00 68 1016.6
20260502040011 63 45 4.0 7.0 0.00 0.00 0.00 68 1016.5
20260502035510 63 52 4.0 8.0 0.00 0.00 0.00 67 1016.4
20260502035008 64 58 3.0 8.0 0.00 0.00 0.00 67 1016.4
20260502034517 64 105 4.0 8.0 0.00 0.00 0.00 66 1016.2
20260502034008 64 91 3.0 7.0 0.00 0.00 0.00 66 1016.1
20260502033508 65 49 3.0 8.0 0.00 0.00 0.00 66 1016.0
20260502033023 65 44 3.0 8.0 0.00 0.00 0.00 66 1016.0
20260502032507 65 45 3.0 12.0 0.00 0.00 0.00 66 1015.9
20260502032010 66 108 4.0 12.0 0.00 0.00 0.00 65 1015.8